Powrót do katalogu

FENGYUN 1C DEB

AktywnySSO
NORAD 29851·DEBRIS·🇨🇳 China

Wystrzelony May 10, 1999 z Taiyuan Satellite Launch Center

Loading…

Następne Przeloty (najbliższe 24 godziny)

TLE

ŚwieżeSource: Space-Track

Epoka: Sep 14, 2026, 09:25 UTC

1 29851U 99025EV  26257.39239910  .00000237  00000-0  23712-3 0  9998
2 29851  99.5485 308.0649 0141420 219.3374 206.8088 13.83781329991790

Śledź FENGYUN 1C DEB w czasie rzeczywistym z AllMySat

Download on the App Store